Weather History for Buffalo, WY

Change the Weather History Date:

Tuesday, March 19, 2013

  Actual Average Record
Temperature  
Mean Temperature 26 °F 35 °F  
Max Temperature 31 °F 47 °F 68 °F (2007)
Min Temperature 20 °F 24 °F 12 °F (2002)
Degree Days  
Heating Degree Days 39 30  
Month to date heating degree days 561 613  
Since 1 July heating degree days 5510 5853  
Cooling Degree Days 0 0  
Month to date cooling degree days 0 0  
Year to date cooling degree days 0 0  
Moisture  
Dew Point 19 °F    
Average Humidity 76    
Maximum Humidity 88    
Minimum Humidity 63    
Precipitation  
Precipitation T in 0.03 in 0.25 in (2006)
Month to date precipitation 0.07 0.46  
Year to date precipitation 0.68 1.23  
Sea Level Pressure  
Sea Level Pressure 30.20 in    
Wind  
Wind Speed 9 mph (NNW)    
Max Wind Speed 31 mph    
Max Gust Speed 38 mph    
Visibility 7 miles    
Events Fog , Snow    
T = Trace of Precipitation, MM = Missing Value Source: NWS Daily Summary

Daily Weather History Graph

Daily Weather History Graph

Search for Another Location

Airport:

Trip Planner

Search our weather history database for the weather conditions in past years. The results will help you decide how hot, cold, wet, or windy it might be!

Date:

Astronomy

Mar. 19, 2013 Rise Set
Actual Time 7:11 AM MDT 7:18 PM MDT
Civil Twilight 6:42 AM MDT 7:47 PM MDT
Nautical Twilight 6:08 AM MDT 8:21 PM MDT
Astronomical Twilight 5:33 AM MDT 8:56 PM MDT
Moon 11:51 AM MDT (3/19) 2:20 AM MDT (3/19)
Length of Visible Light 13h 05m
Length of Day
12h 07m
Waxing Crescent, 50% of the Moon is Illuminated
Mar 19
Waxing Crescent
Mar 27
Full
Apr 2
Last Quarter
Apr 10
New
Apr 18
First Quarter

Hourly Weather History & Observations

Time (MDT) Temp. Windchill Dew Point Humidity Pressure Visibility Wind Dir Wind Speed Gust Speed Precip Events Conditions
12:53 AM 27.0 °F - 17.1 °F 66% 29.98 in 10.0 mi Calm Calm - N/A   Clear
1:53 AM 26.1 °F 18.4 °F 16.0 °F 66% 30.01 in 10.0 mi NNW 6.9 mph - N/A   Clear
2:53 AM 21.0 °F 16.2 °F 14.0 °F 74% 30.04 in 10.0 mi West 3.5 mph - N/A   Clear
3:53 AM 24.1 °F 19.7 °F 15.1 °F 69% 30.04 in 10.0 mi NW 3.5 mph - N/A   Mostly Cloudy
4:53 AM 26.1 °F 21.9 °F 17.1 °F 69% 30.06 in 10.0 mi WSW 3.5 mph - N/A   Overcast
5:53 AM 26.1 °F - 16.0 °F 66% 30.09 in 10.0 mi Calm Calm - N/A   Overcast
6:53 AM 24.1 °F 17.0 °F 16.0 °F 71% 30.14 in 10.0 mi NW 5.8 mph - N/A   Overcast
7:53 AM 26.1 °F 19.4 °F 18.0 °F 71% 30.16 in 10.0 mi North 5.8 mph - N/A   Overcast
8:53 AM 26.1 °F 17.6 °F 21.0 °F 81% 30.18 in 10.0 mi North 8.1 mph - N/A   Overcast
9:06 AM 26.6 °F 17.5 °F 21.2 °F 80% 30.09 in 10.0 mi NNW 9.2 mph - N/A   Overcast
9:18 AM 28.4 °F 19.7 °F 21.2 °F 74% 30.10 in 9.0 mi North 9.2 mph - N/A   Overcast
9:30 AM 28.4 °F 17.0 °F 21.2 °F 74% 30.10 in 10.0 mi North 15.0 mph 23.0 mph N/A   Overcast
9:46 AM 28.4 °F 19.1 °F 21.2 °F 74% 30.10 in 10.0 mi North 10.4 mph 23.0 mph N/A   Mostly Cloudy
9:53 AM 28.0 °F 17.0 °F 21.0 °F 75% 30.20 in 9.0 mi North 13.8 mph 23.0 mph N/A   Overcast
10:13 AM 28.4 °F 17.5 °F 21.2 °F 74% 30.11 in 8.0 mi North 13.8 mph 24.2 mph 0.00 in   Overcast
10:24 AM 28.4 °F 19.1 °F 21.2 °F 74% 30.12 in 10.0 mi NNW 10.4 mph - 0.00 in   Overcast
10:31 AM 26.6 °F 15.7 °F 19.4 °F 74% 30.12 in 10.0 mi North 12.7 mph 19.6 mph 0.00 in   Overcast
10:53 AM 27.0 °F 13.5 °F 21.0 °F 78% 30.24 in 6.0 mi North 19.6 mph 25.3 mph 0.00 in Snow Light Snow
11:37 AM 28.4 °F 15.1 °F 19.4 °F 69% 30.15 in 10.0 mi NNW 20.7 mph 26.5 mph 0.00 in   Overcast
11:53 AM 30.0 °F 15.7 °F 19.9 °F 66% 30.24 in 10.0 mi North 26.5 mph 35.7 mph 0.00 in   Mostly Cloudy
12:53 PM 28.9 °F 15.4 °F 19.0 °F 67% 30.26 in 6.0 mi North 21.9 mph 35.7 mph 0.00 in Snow Light Snow
1:37 PM 26.6 °F 12.7 °F 19.4 °F 74% 30.19 in 1.8 mi NNW 20.7 mph 34.5 mph 0.00 in Snow Light Snow
1:42 PM 26.6 °F 12.4 °F 19.4 °F 74% 30.19 in 1.0 mi NNW 21.9 mph 28.8 mph 0.00 in Snow Light Snow
1:48 PM 26.6 °F 12.4 °F 21.2 °F 80% 30.19 in 0.5 mi North 21.9 mph 27.6 mph 0.00 in Snow Snow
1:53 PM 25.0 °F 10.9 °F 21.9 °F 88% 30.31 in 0.2 mi North 19.6 mph 27.6 mph 0.00 in Fog , Snow Heavy Snow
2:09 PM 26.6 °F 13.1 °F 21.2 °F 80% 30.20 in 1.2 mi North 19.6 mph 27.6 mph 0.00 in Snow Light Snow
2:34 PM 26.6 °F 13.4 °F 21.2 °F 80% 30.20 in 1.5 mi North 18.4 mph 25.3 mph 0.00 in Snow Light Snow
2:39 PM 26.6 °F 14.3 °F 21.2 °F 80% 30.20 in 3.0 mi North 16.1 mph 24.2 mph 0.00 in Snow Light Snow
2:48 PM 26.6 °F 13.8 °F 21.2 °F 80% 30.20 in 4.0 mi North 17.3 mph 24.2 mph 0.00 in Snow Light Snow
2:53 PM 27.0 °F 16.1 °F 21.9 °F 81% 30.33 in 2.0 mi NNW 12.7 mph 23.0 mph 0.00 in Snow Light Snow
3:01 PM 26.6 °F 15.2 °F 21.2 °F 80% 30.20 in 1.8 mi North 13.8 mph 21.9 mph 0.00 in Snow Light Snow
3:09 PM 26.6 °F 16.2 °F 21.2 °F 80% 30.21 in 2.5 mi North 11.5 mph 21.9 mph 0.00 in Snow Light Snow
3:31 PM 26.6 °F 15.7 °F 21.2 °F 80% 30.21 in 1.5 mi North 12.7 mph 24.2 mph 0.00 in Snow Light Snow
3:53 PM 27.0 °F 13.9 °F 21.0 °F 78% 30.33 in 3.0 mi North 18.4 mph 24.2 mph 0.00 in Snow Light Snow
4:06 PM 26.6 °F 15.7 °F 19.4 °F 74% 30.22 in 8.0 mi NNW 12.7 mph 25.3 mph 0.00 in Snow Light Snow
4:25 PM 26.6 °F 14.7 °F 19.4 °F 74% 30.22 in 10.0 mi North 15.0 mph 24.2 mph 0.00 in   Overcast
4:53 PM 28.0 °F 18.6 °F 19.9 °F 72% 30.33 in 10.0 mi NNW 10.4 mph 17.3 mph 0.00 in   Mostly Cloudy
5:19 PM 28.4 °F 20.4 °F 19.4 °F 69% 30.22 in 10.0 mi North 8.1 mph - N/A   Scattered Clouds
5:53 PM 27.0 °F 17.3 °F 18.0 °F 69% 30.33 in 10.0 mi NNW 10.4 mph - N/A   Clear
6:53 PM 25.0 °F 20.7 °F 15.1 °F 66% 30.35 in 10.0 mi NNW 3.5 mph - N/A   Partly Cloudy
7:53 PM 21.0 °F 14.6 °F 14.0 °F 74% 30.37 in 10.0 mi WNW 4.6 mph - N/A   Clear
8:53 PM 21.9 °F 15.7 °F 14.0 °F 72% 30.38 in 10.0 mi WSW 4.6 mph - N/A   Clear
9:53 PM 21.0 °F 16.2 °F 14.0 °F 74% 30.37 in 10.0 mi SW 3.5 mph - N/A   Clear
10:53 PM 21.9 °F - 12.9 °F 68% 30.36 in 10.0 mi Calm Calm - N/A   Clear
11:53 PM 21.0 °F 11.4 °F 12.9 °F 71% 30.33 in 10.0 mi South 8.1 mph - N/A   Clear